This is the latest recevied weather packets stored in our database for station/object W0WC. If no packets are shown the sender has not sent any weather packets the latest 10 day(s).
| Time | Temp. | Humidity | Pressure | Rain* | Wind** | Luminosity | Snow |
|---|---|---|---|---|---|---|---|
| 1788182129 | 27.78° C | 55% | 1018.2 hPa | 0 mm | - | 114 W/m² | - |
| 1788181826 | 27.78° C | 56% | 1018 hPa | 0 mm | - | 102 W/m² | - |
| 1788181526 | 27.78° C | 56% | 1017.9 hPa | 0 mm | - | 93 W/m² | - |
| 1788181222 | 27.78° C | 56% | 1018 hPa | 0 mm | - | 83 W/m² | - |
| 1788180925 | 27.22° C | 56% | 1017.9 hPa | 0 mm | - | 73 W/m² | - |
| 1788180610 | 27.22° C | 56% | 1017.6 hPa | 0 mm | - | 64 W/m² | - |
| 1788180307 | 27.22° C | 56% | 1017.8 hPa | 0 mm | - | 57 W/m² | - |
| 1788180002 | 26.67° C | 57% | 1017.6 hPa | 0 mm | - | 49 W/m² | - |
| 1788179701 | 26.67° C | 57% | 1017.6 hPa | 0 mm | - | 43 W/m² | - |
| 1788179403 | 26.67° C | 57% | 1017.3 hPa | 0 mm | - | 37 W/m² | - |
| 1788179091 | 26.67° C | 57% | 1017.4 hPa | 0 mm | - | 31 W/m² | - |
| 1788178786 | 26.67° C | 57% | 1017.4 hPa | 0 mm | - | 26 W/m² | - |
| 1788178481 | 26.11° C | 58% | 1017 hPa | 0 mm | - | 20 W/m² | - |
| 1788178177 | 26.11° C | 57% | 1017 hPa | 0 mm | - | 16 W/m² | - |
| 1788177871 | 26.11° C | 57% | 1017.1 hPa | 0 mm | - | 13 W/m² | - |
| 1788177571 | 26.11° C | 57% | 1016.7 hPa | 0 mm | - | 9 W/m² | - |
| 1788177268 | 26.11° C | 57% | 1017.1 hPa | 0 mm | - | 6 W/m² | - |
| 1788176967 | 26.11° C | 57% | 1016.7 hPa | 0 mm | - | 4 W/m² | - |
| 1788176666 | 26.11° C | 57% | 1016.8 hPa | 0 mm | - | 2 W/m² | - |
| 1788176362 | 26.11° C | 57% | 1016.8 hPa | 0 mm | - | 1 W/m² | - |
| 1788176062 | 26.67° C | 56% | 1016.6 hPa | 0 mm | - | 0 W/m² | - |
| 1788175757 | 26.67° C | 56% | 1016.5 hPa | 0 mm | - | 0 W/m² | - |
| 1788175457 | 26.67° C | 56% | 1016.7 hPa | 0 mm | - | 0 W/m² | - |
| 1788175152 | 26.67° C | 56% | 1016.6 hPa | 0 mm | - | 0 W/m² | - |
| 1788174848 | 26.67° C | 56% | 1016.5 hPa | 0 mm | - | 0 W/m² | - |
* Rain latest hour (hover to see other rain measurements)
** Current wind speed in m/s (hover to see current wind gust speed)